• In Hungary
  • List of Countries
  • For 7 days
  • Water Temperature
  • Satellite Maps
  • Weather Map
  • News
  • Weather Widgets
  • user-avatar
    Login

    Hourly Weather Wrecza

    Today, 22 October, Monday

    Time Temperature Precipitation Wind Pressure Humidity
    00:00 +6°C° 0 mm 1 mps 757 mmHg 83%
    01:00 +6°C° 0 mm 1 mps 756 mmHg 84%
    02:00 +6°C° 0 mm 1 mps 756 mmHg 85%
    03:00 +5°C° 0 mm 1 mps 756 mmHg 86%
    04:00 +5°C° 0 mm 1 mps 756 mmHg 87%
    05:00 +4°C° 0 mm 2 mps 756 mmHg 87%
    06:00 +4°C° 0 mm 2 mps 756 mmHg 86%
    07:00 +4°C° 0 mm 2 mps 755 mmHg 86%
    08:00 +6°C° 0 mm 2 mps 755 mmHg 78%
    09:00 +8°C° 0 mm 3 mps 755 mmHg 70%
    10:00 +10°C° 0 mm 3 mps 755 mmHg 62%
    11:00 +10°C° 0 mm 3 mps 754 mmHg 59%
    12:00 +11°C° 0 mm 4 mps 754 mmHg 56%
    13:00 +12°C° 0 mm 4 mps 753 mmHg 53%
    14:00 +12°C° 0 mm 4 mps 753 mmHg 55%
    15:00 +11°C° 0 mm 3 mps 753 mmHg 58%
    16:00 +11°C° 0 mm 3 mps 752 mmHg 60%
    17:00 +11°C° 0.2 mm 3 mps 752 mmHg 66%
    18:00 +10°C° 0.2 mm 4 mps 752 mmHg 71%
    19:00 +10°C° 0.2 mm 4 mps 752 mmHg 76%
    20:00 +8°C° 0.2 mm 4 mps 752 mmHg 78%
    21:00 +8°C° 0.2 mm 4 mps 753 mmHg 80%
    22:00 +7°C° 0.2 mm 4 mps 753 mmHg 83%
    23:00 +6°C° 0 mm 4 mps 753 mmHg 84%

    Tomorrow, 23 October, Tuesday

    Time Temperature Precipitation Wind Pressure Humidity
    00:00 +6°C° 0 mm 4 mps 753 mmHg 86%
    01:00 +5°C° 0 mm 3 mps 753 mmHg 87%
    02:00 +4°C° 0 mm 4 mps 752 mmHg 87%
    03:00 +4°C° 0 mm 4 mps 752 mmHg 87%
    04:00 +4°C° 0 mm 4 mps 751 mmHg 87%
    05:00 +4°C° 0 mm 4 mps 751 mmHg 85%
    06:00 +3°C° 0 mm 5 mps 750 mmHg 83%
    07:00 +5°C° 0 mm 5 mps 750 mmHg 81%
    08:00 +4°C° 0.4 mm 6 mps 749 mmHg 78%
    09:00 +4°C° 0.4 mm 7 mps 748 mmHg 75%
    10:00 +5°C° 0.4 mm 8 mps 747 mmHg 72%
    11:00 +5°C° 0.8 mm 9 mps 746 mmHg 73%
    12:00 +5°C° 0.8 mm 9 mps 745 mmHg 74%
    13:00 +5°C° 0.8 mm 10 mps 743 mmHg 75%
    14:00 +5°C° 1.1 mm 10 mps 742 mmHg 77%
    15:00 +5°C° 1.1 mm 10 mps 741 mmHg 79%
    16:00 +4°C° 1.1 mm 11 mps 739 mmHg 80%
    17:00 +6°C° 1 mm 10 mps 738 mmHg 82%
    18:00 +7°C° 1 mm 10 mps 737 mmHg 83%
    19:00 +7°C° 1 mm 10 mps 737 mmHg 85%
    20:00 +7°C° 1.3 mm 9 mps 736 mmHg 85%
    21:00 +7°C° 1.3 mm 8 mps 735 mmHg 86%
    22:00 +8°C° 1.3 mm 7 mps 734 mmHg 87%
    23:00 +8°C° 1 mm 7 mps 734 mmHg 85%

    Day after tomorrow, 24 October, Wednesday

    Time Temperature Precipitation Wind Pressure Humidity
    00:00 +8°C° 1 mm 7 mps 733 mmHg 83%
    01:00 +8°C° 1 mm 7 mps 733 mmHg 81%
    02:00 +6°C° 0.2 mm 8 mps 732 mmHg 77%
    03:00 +6°C° 0.2 mm 9 mps 732 mmHg 72%
    04:00 +4°C° 0.2 mm 11 mps 732 mmHg 68%
    05:00 +5°C° 0.1 mm 10 mps 732 mmHg 64%
    06:00 +3°C° 0.1 mm 10 mps 733 mmHg 59%
    07:00 +3°C° 0.1 mm 10 mps 734 mmHg 55%
    08:00 +3°C° 0 mm 11 mps 735 mmHg 53%
    09:00 +3°C° 0 mm 11 mps 736 mmHg 51%
    10:00 +4°C° 0 mm 12 mps 737 mmHg 48%
    11:00 +4°C° 0 mm 12 mps 737 mmHg 48%
    12:00 +4°C° 0 mm 11 mps 738 mmHg 48%
    13:00 +6°C° 0 mm 11 mps 738 mmHg 47%
    14:00 +4°C° 0 mm 11 mps 739 mmHg 48%
    15:00 +5°C° 0 mm 10 mps 739 mmHg 48%
    16:00 +5°C° 0 mm 9 mps 740 mmHg 49%
    17:00 +3°C° 0 mm 9 mps 741 mmHg 51%
    18:00 +3°C° 0 mm 9 mps 741 mmHg 53%
    19:00 +2°C° 0 mm 9 mps 742 mmHg 55%
    20:00 +2°C° 0 mm 8 mps 742 mmHg 57%
    21:00 +2°C° 0 mm 8 mps 743 mmHg 60%
    22:00 +3°C° 0 mm 7 mps 743 mmHg 62%
    23:00 +2°C° 0 mm 7 mps 743 mmHg 63%

    25 October, Thursday

    Time Temperature Precipitation Wind Pressure Humidity
    00:00 +2°C° 0 mm 6 mps 744 mmHg 65%
    01:00 +2°C° 0 mm 6 mps 744 mmHg 66%
    02:00 +2°C° 0 mm 5 mps 743 mmHg 70%
    03:00 +1°C° 0 mm 5 mps 743 mmHg 74%
    04:00 +1°C° 0 mm 5 mps 743 mmHg 78%
    05:00 +2°C° 0.4 mm 5 mps 742 mmHg 79%
    06:00 +2°C° 0.4 mm 5 mps 741 mmHg 80%
    07:00 +3°C° 0.4 mm 5 mps 740 mmHg 82%
    08:00 +4°C° 1 mm 6 mps 739 mmHg 83%
    09:00 +6°C° 1 mm 8 mps 738 mmHg 83%
    10:00 +7°C° 1 mm 9 mps 738 mmHg 84%
    11:00 +8°C° 0.3 mm 9 mps 737 mmHg 81%
    12:00 +8°C° 0.3 mm 10 mps 737 mmHg 78%
    13:00 +8°C° 0.3 mm 10 mps 737 mmHg 75%
    14:00 +8°C° 0.1 mm 10 mps 737 mmHg 73%
    15:00 +8°C° 0.1 mm 9 mps 738 mmHg 71%
    16:00 +7°C° 0.1 mm 8 mps 739 mmHg 69%
    17:00 +7°C° 0 mm 8 mps 739 mmHg 72%
    18:00 +6°C° 0 mm 7 mps 740 mmHg 75%
    19:00 +6°C° 0 mm 7 mps 741 mmHg 77%
    20:00 +7°C° 0 mm 6 mps 741 mmHg 78%
    21:00 +5°C° 0 mm 6 mps 741 mmHg 79%
    22:00 +5°C° 0 mm 6 mps 742 mmHg 80%
    23:00 +5°C° 0 mm 6 mps 742 mmHg 81%

    26 October, Friday

    Time Temperature Precipitation Wind Pressure Humidity
    00:00 +5°C° 0 mm 6 mps 742 mmHg 82%
    01:00 +5°C° 0 mm 6 mps 742 mmHg 84%
    02:00 +6°C° 0 mm 5 mps 742 mmHg 85%
    03:00 +5°C° 0 mm 5 mps 743 mmHg 87%
    04:00 +5°C° 0 mm 5 mps 743 mmHg 88%
    05:00 +5°C° 0 mm 4 mps 743 mmHg 89%
    06:00 +5°C° 0 mm 4 mps 743 mmHg 89%
    07:00 +5°C° 0 mm 3 mps 743 mmHg 90%
    08:00 +7°C° 0 mm 3 mps 743 mmHg 86%
    09:00 +7°C° 0 mm 3 mps 743 mmHg 81%
    10:00 +8°C° 0 mm 3 mps 744 mmHg 77%
    11:00 +8°C° 0 mm 4 mps 743 mmHg 72%
    12:00 +10°C° 0 mm 4 mps 743 mmHg 67%
    13:00 +11°C° 0 mm 4 mps 743 mmHg 62%
    14:00 +10°C° 0 mm 4 mps 742 mmHg 65%
    15:00 +9°C° 0 mm 3 mps 742 mmHg 68%
    16:00 +9°C° 0 mm 2 mps 742 mmHg 71%
    17:00 +9°C° 0 mm 3 mps 742 mmHg 74%
    18:00 +8°C° 0 mm 3 mps 741 mmHg 78%
    19:00 +8°C° 0 mm 3 mps 741 mmHg 81%
    20:00 +8°C° 0 mm 3 mps 741 mmHg 82%
    21:00 +7°C° 0 mm 4 mps 740 mmHg 83%
    22:00 +7°C° 0 mm 4 mps 740 mmHg 83%
    23:00 +7°C° 0 mm 4 mps 740 mmHg 83%

    27 October, Saturday

    Time Temperature Precipitation Wind Pressure Humidity
    00:00 +7°C° 0 mm 4 mps 739 mmHg 83%
    01:00 +8°C° 0 mm 5 mps 739 mmHg 82%
    02:00 +7°C° 0 mm 4 mps 739 mmHg 83%
    03:00 +7°C° 0 mm 4 mps 738 mmHg 84%
    04:00 +8°C° 0 mm 3 mps 738 mmHg 85%
    05:00 +8°C° 0 mm 3 mps 738 mmHg 87%
    06:00 +7°C° 0 mm 3 mps 738 mmHg 89%
    07:00 +7°C° 0 mm 3 mps 738 mmHg 91%
    08:00 +8°C° 0 mm 2 mps 738 mmHg 86%
    09:00 +10°C° 0 mm 2 mps 738 mmHg 80%
    10:00 +12°C° 0 mm 2 mps 738 mmHg 74%
    11:00 +13°C° 0 mm 2 mps 737 mmHg 72%
    12:00 +14°C° 0 mm 2 mps 737 mmHg 69%
    13:00 +14°C° 0 mm 2 mps 737 mmHg 66%
    14:00 +14°C° 0.1 mm 2 mps 736 mmHg 71%
    15:00 +13°C° 0.1 mm 2 mps 736 mmHg 75%
    16:00 +13°C° 0.1 mm 2 mps 735 mmHg 79%
    17:00 +12°C° 1.4 mm 3 mps 735 mmHg 82%
    18:00 +12°C° 1.4 mm 3 mps 734 mmHg 85%
    19:00 +11°C° 1.4 mm 3 mps 734 mmHg 88%
    20:00 +11°C° 0.3 mm 3 mps 734 mmHg 88%
    21:00 +11°C° 0.3 mm 3 mps 733 mmHg 89%
    22:00 +11°C° 0.3 mm 3 mps 733 mmHg 89%
    23:00 +11°C° 0.5 mm 3 mps 733 mmHg 89%

    28 October, Sunday

    Time Temperature Precipitation Wind Pressure Humidity
    00:00 +11°C° 0.5 mm 3 mps 732 mmHg 89%
    01:00 +11°C° 0.5 mm 3 mps 732 mmHg 89%
    02:00 +11°C° 0.3 mm 3 mps 732 mmHg 89%
    03:00 +11°C° 0.3 mm 3 mps 732 mmHg 90%
    04:00 +10°C° 0.3 mm 3 mps 732 mmHg 90%
    05:00 +10°C° 0.2 mm 4 mps 733 mmHg 90%
    06:00 +8°C° 0.2 mm 4 mps 733 mmHg 89%
    07:00 +8°C° 0.2 mm 4 mps 734 mmHg 88%
    08:00 +7°C° 0 mm 5 mps 735 mmHg 87%
    09:00 +7°C° 0 mm 5 mps 737 mmHg 85%
    10:00 +7°C° 0 mm 5 mps 738 mmHg 83%
    11:00 +7°C° 0 mm 5 mps 739 mmHg 79%
    12:00 +8°C° 0 mm 5 mps 740 mmHg 75%
    13:00 +8°C° 0 mm 5 mps 741 mmHg 71%
    14:00 +8°C° 0 mm 4 mps 741 mmHg 71%
    15:00 +8°C° 0 mm 3 mps 742 mmHg 71%
    16:00 +8°C° 0 mm 2 mps 743 mmHg 71%
    17:00 +8°C° 0 mm 2 mps 743 mmHg 73%
    18:00 +7°C° 0 mm 2 mps 744 mmHg 75%
    19:00 +8°C° 0 mm 1 mps 745 mmHg 76%
    20:00 +7°C° 0 mm 1 mps 745 mmHg 78%
    21:00 +7°C° 0 mm 1 mps 746 mmHg 79%
    22:00 +6°C° 0 mm 0 mps 746 mmHg 80%
    23:00 +6°C° 0 mm 1 mps 746 mmHg 81%
    Show more